Terug naar catalogus

STARLINK-31591

ActiefCommunicatieVLEO
NORAD 59207·PAYLOAD·🇺🇸 United States

Gelanceerd Mar 11, 2024 vanaf Vandenberg Space Force Base

Loading…

Volgende Passages (komende 24 uur)

TLE

VersSource: CelesTrak SupGP

Epoch: Sep 15, 2026, 02:04 UTC

1 59207C 24046G   26258.08659722  .00063138  00000+0  18654-2 0  2585
2 59207  53.1602 351.2805 0001087  81.4402  81.7131 15.34360327    17

Volg STARLINK-31591 in realtime met AllMySat

Download on the App Store